This is the latest recevied weather packets stored in our database for station/object LX0WX-13. If no packets are shown the sender has not sent any weather packets the latest 1 day(s).
| Time | Temp. | Humidity | Pressure | Rain* | Wind** | Luminosity | Snow |
|---|---|---|---|---|---|---|---|
| 1777983652 | 13.89° C | 72% | 1004.3 hPa | 0 mm | 0 m/s | - | - |
| 1777983352 | 13.89° C | 71% | 1004.3 hPa | 0 mm | 0 m/s | - | - |
| 1777983053 | 14.44° C | 69% | 1004.2 hPa | 0 mm | 0 m/s | - | - |
| 1777982753 | 14.44° C | 69% | 1004.2 hPa | 0 mm | 0 m/s | - | - |
| 1777982453 | 14.44° C | 69% | 1004.5 hPa | 0 mm | 0 m/s | - | - |
| 1777982153 | 15° C | 70% | 1004.5 hPa | 0 mm | 0.45 m/s, 157° | - | - |
| 1777981853 | 15° C | 70% | 1004.5 hPa | 0 mm | 0 m/s | - | - |
| 1777981553 | 14.44° C | 70% | 1004.6 hPa | 0 mm | 0 m/s | - | - |
| 1777981253 | 14.44° C | 70% | 1004.7 hPa | 0 mm | 1.79 m/s, 157° | - | - |
| 1777980953 | 14.44° C | 68% | 1004.5 hPa | 0 mm | 0.45 m/s, 135° | - | - |
| 1777980653 | 14.44° C | 68% | 1004.5 hPa | 0 mm | 0 m/s | - | - |
| 1777980353 | 14.44° C | 68% | 1004.6 hPa | 0 mm | 0 m/s | - | - |
| 1777980053 | 14.44° C | 68% | 1004.7 hPa | 0 mm | 0 m/s | - | - |
| 1777979753 | 14.44° C | 67% | 1004.7 hPa | 0 mm | 0.89 m/s, 157° | - | - |
| 1777979453 | 14.44° C | 66% | 1004.6 hPa | 0 mm | 0.89 m/s, 135° | - | - |
| 1777979153 | 15° C | 66% | 1004.7 hPa | 0 mm | 0.89 m/s, 157° | - | - |
| 1777978853 | 15° C | 65% | 1004.8 hPa | 0 mm | 1.34 m/s, 180° | - | - |
| 1777978553 | 15° C | 65% | 1004.8 hPa | 0 mm | 0.89 m/s, 180° | - | - |
| 1777978253 | 15° C | 65% | 1004.9 hPa | 0 mm | 0.45 m/s, 180° | - | - |
| 1777977953 | 15° C | 62% | 1005 hPa | 0 mm | 0.89 m/s, 135° | - | - |
| 1777977653 | 15.56° C | 63% | 1005 hPa | 0 mm | 1.79 m/s, 157° | - | - |
| 1777977353 | 16.11° C | 63% | 1005 hPa | 0 mm | 1.34 m/s, 180° | - | - |
| 1777977053 | 16.11° C | 63% | 1004.8 hPa | 0 mm | 2.68 m/s, 157° | - | - |
| 1777976753 | 16.11° C | 62% | 1004.9 hPa | 0 mm | 0.45 m/s, 157° | - | - |
| 1777976453 | 16.11° C | 61% | 1005 hPa | 0 mm | 0.89 m/s, 180° | - | - |
* Rain latest hour (hover to see other rain measurements)
** Current wind speed in m/s (hover to see current wind gust speed)